Time,TemperatureF,DewpointF,PressureIn,WindDirection,WindDirectionDegrees,WindSpeedMPH,WindSpeedGustMPH,Humidity,HourlyPrecipIn,Conditions,Clouds,dailyrainin,SoftwareType,DateUTC
2013-10-03 00:00:00,59.7,58.3,30.03,NE,35,0.0,0.0,95,0.00,,,0.00,Wunderground v.1.15,2013-10-03 04:00:00,
2013-10-03 00:05:00,59.6,58.2,30.03,NE,35,0.0,0.0,95,0.00,,,0.00,Wunderground v.1.15,2013-10-03 04:05:00,
2013-10-03 00:15:00,59.3,57.6,30.03,NE,35,0.0,0.0,94,0.00,,,0.00,Wunderground v.1.15,2013-10-03 04:15:00,
2013-10-03 00:25:00,59.1,57.7,30.04,NE,35,0.0,0.0,95,0.00,,,0.00,Wunderground v.1.15,2013-10-03 04:25:00,
2013-10-03 00:30:00,58.9,57.5,30.04,NE,35,0.0,0.0,95,0.00,,,0.00,Wunderground v.1.15,2013-10-03 04:30:00,
2013-10-03 00:35:00,58.7,57.3,30.04,NE,35,0.0,0.0,95,0.00,,,0.00,Wunderground v.1.15,2013-10-03 04:35:00,
2013-10-03 00:40:00,58.5,57.1,30.04,NE,35,0.0,0.0,95,0.00,,,0.00,Wunderground v.1.15,2013-10-03 04:40:00,
2013-10-03 00:45:00,58.4,57.0,30.04,NE,35,0.0,0.0,95,0.00,,,0.00,Wunderground v.1.15,2013-10-03 04:45:00,
2013-10-03 00:55:00,58.2,56.8,30.04,NE,35,0.0,0.0,95,0.00,,,0.00,Wunderground v.1.15,2013-10-03 04:55:00,
2013-10-03 01:00:00,58.1,56.7,30.04,NE,35,0.0,0.0,95,0.00,,,0.00,Wunderground v.1.15,2013-10-03 05:00:00,
2013-10-03 01:05:00,58.0,56.6,30.05,NE,35,0.0,0.0,95,0.00,,,0.00,Wunderground v.1.15,2013-10-03 05:05:00,
2013-10-03 01:16:00,57.8,56.4,30.05,NE,35,0.0,0.0,95,0.00,,,0.00,Wunderground v.1.15,2013-10-03 05:16:00,
2013-10-03 01:20:00,57.7,56.3,30.05,NE,35,0.0,0.0,95,0.00,,,0.00,Wunderground v.1.15,2013-10-03 05:20:00,
2013-10-03 01:25:00,57.5,56.1,30.05,NE,35,0.0,0.0,95,0.00,,,0.00,Wunderground v.1.15,2013-10-03 05:25:00,
2013-10-03 01:30:00,57.4,56.3,30.05,NE,35,0.0,0.0,96,0.00,,,0.00,Wunderground v.1.15,2013-10-03 05:30:00,
2013-10-03 01:40:00,57.2,56.1,30.05,NE,35,0.0,0.0,96,0.00,,,0.00,Wunderground v.1.15,2013-10-03 05:40:00,
2013-10-03 01:45:00,57.2,56.1,30.06,NE,35,0.0,0.0,96,0.00,,,0.00,Wunderground v.1.15,2013-10-03 05:45:00,
2013-10-03 01:55:00,56.9,55.8,30.06,NE,35,0.0,0.0,96,0.00,,,0.00,Wunderground v.1.15,2013-10-03 05:55:00,
2013-10-03 02:00:00,56.7,55.6,30.06,NE,35,0.0,0.0,96,0.00,,,0.00,Wunderground v.1.15,2013-10-03 06:00:00,
2013-10-03 02:10:00,56.5,55.4,30.06,NE,35,0.0,0.0,96,0.00,,,0.00,Wunderground v.1.15,2013-10-03 06:10:00,
2013-10-03 02:15:00,56.4,55.3,30.06,NE,35,0.0,0.0,96,0.00,,,0.00,Wunderground v.1.15,2013-10-03 06:15:00,
2013-10-03 02:25:00,56.1,55.0,30.06,NE,35,0.0,0.0,96,0.00,,,0.00,Wunderground v.1.15,2013-10-03 06:25:00,
2013-10-03 02:31:00,56.0,54.9,30.06,NE,35,0.0,0.0,96,0.00,,,0.00,Wunderground v.1.15,2013-10-03 06:31:00,
2013-10-03 02:40:00,55.7,54.6,30.06,NE,35,0.0,0.0,96,0.00,,,0.00,Wunderground v.1.15,2013-10-03 06:40:00,
2013-10-03 02:45:00,55.6,54.5,30.06,NE,35,0.0,0.0,96,0.00,,,0.00,Wunderground v.1.15,2013-10-03 06:45:00,
2013-10-03 02:55:00,55.4,54.3,30.06,NE,35,0.0,0.0,96,0.00,,,0.00,Wunderground v.1.15,2013-10-03 06:55:00,
2013-10-03 03:01:00,55.4,54.3,30.07,NE,35,0.0,0.0,96,0.00,,,0.00,Wunderground v.1.15,2013-10-03 07:01:00,
2013-10-03 03:10:00,55.1,54.0,30.07,NE,35,0.0,0.0,96,0.00,,,0.00,Wunderground v.1.15,2013-10-03 07:10:00,
2013-10-03 03:15:00,55.0,53.9,30.07,NE,35,0.0,0.0,96,0.00,,,0.00,Wunderground v.1.15,2013-10-03 07:15:00,
2013-10-03 03:25:00,54.6,53.5,30.07,NE,35,0.0,0.0,96,0.00,,,0.00,Wunderground v.1.15,2013-10-03 07:25:00,
2013-10-03 03:30:00,54.5,53.4,30.07,NE,35,0.0,0.0,96,0.00,,,0.00,Wunderground v.1.15,2013-10-03 07:30:00,
2013-10-03 03:40:00,54.4,53.6,30.06,NE,35,0.0,0.0,97,0.00,,,0.00,Wunderground v.1.15,2013-10-03 07:40:00,
2013-10-03 03:45:00,54.3,53.5,30.07,NE,35,0.0,0.0,97,0.00,,,0.00,Wunderground v.1.15,2013-10-03 07:45:00,
2013-10-03 03:55:00,54.2,53.4,30.07,NE,35,0.0,0.0,97,0.00,,,0.00,Wunderground v.1.15,2013-10-03 07:55:00,
2013-10-03 04:00:00,54.2,53.4,30.07,NE,35,0.0,0.0,97,0.00,,,0.00,Wunderground v.1.15,2013-10-03 08:00:00,
2013-10-03 04:10:00,54.1,53.3,30.07,NE,35,0.0,0.0,97,0.00,,,0.00,Wunderground v.1.15,2013-10-03 08:10:00,
2013-10-03 04:15:00,54.1,53.3,30.07,NE,35,0.0,0.0,97,0.00,,,0.00,Wunderground v.1.15,2013-10-03 08:15:00,
2013-10-03 04:25:00,53.8,53.0,30.07,NE,35,0.0,0.0,97,0.00,,,0.00,Wunderground v.1.15,2013-10-03 08:25:00,
2013-10-03 04:30:00,53.7,52.9,30.07,NE,35,0.0,0.0,97,0.00,,,0.00,Wunderground v.1.15,2013-10-03 08:30:00,
2013-10-03 04:40:00,53.5,52.7,30.08,NE,35,0.0,0.0,97,0.00,,,0.00,Wunderground v.1.15,2013-10-03 08:40:00,
2013-10-03 04:45:00,53.4,52.6,30.08,NE,35,0.0,0.0,97,0.00,,,0.00,Wunderground v.1.15,2013-10-03 08:45:00,
2013-10-03 04:55:00,53.3,52.5,30.08,NE,35,0.0,0.0,97,0.00,,,0.00,Wunderground v.1.15,2013-10-03 08:55:00,
2013-10-03 05:00:00,53.3,52.5,30.08,NE,35,0.0,0.0,97,0.00,,,0.00,Wunderground v.1.15,2013-10-03 09:00:00,
2013-10-03 05:10:00,53.3,52.5,30.08,NE,35,0.0,0.0,97,0.00,,,0.00,Wunderground v.1.15,2013-10-03 09:10:00,
2013-10-03 05:15:00,53.3,52.5,30.09,NE,35,0.0,0.0,97,0.00,,,0.00,Wunderground v.1.15,2013-10-03 09:15:00,
2013-10-03 05:25:00,53.3,52.5,30.09,NE,35,0.0,0.0,97,0.00,,,0.00,Wunderground v.1.15,2013-10-03 09:25:00,
2013-10-03 05:30:00,53.2,52.4,30.09,NE,35,0.0,0.0,97,0.00,,,0.00,Wunderground v.1.15,2013-10-03 09:30:00,
2013-10-03 05:40:00,53.1,52.3,30.09,NE,35,0.0,0.0,97,0.00,,,0.00,Wunderground v.1.15,2013-10-03 09:40:00,
2013-10-03 05:45:00,53.0,52.2,30.10,NE,35,0.0,0.0,97,0.00,,,0.00,Wunderground v.1.15,2013-10-03 09:45:00,
2013-10-03 05:55:00,53.0,52.2,30.09,NE,35,0.0,0.0,97,0.00,,,0.00,Wunderground v.1.15,2013-10-03 09:55:00,
2013-10-03 06:00:00,52.8,52.0,30.10,NE,35,0.0,0.0,97,0.00,,,0.00,Wunderground v.1.15,2013-10-03 10:00:00,
2013-10-03 06:10:00,52.7,51.9,30.10,NE,35,0.0,0.0,97,0.00,,,0.00,Wunderground v.1.15,2013-10-03 10:10:00,
2013-10-03 06:15:00,52.6,51.8,30.10,NE,35,0.0,0.0,97,0.00,,,0.00,Wunderground v.1.15,2013-10-03 10:15:00,
2013-10-03 06:25:00,52.6,51.8,30.10,NE,35,0.0,0.0,97,0.00,,,0.00,Wunderground v.1.15,2013-10-03 10:25:00,
2013-10-03 06:30:00,52.5,51.7,30.10,NE,35,0.0,0.0,97,0.00,,,0.00,Wunderground v.1.15,2013-10-03 10:30:00,
2013-10-03 06:40:00,52.4,51.6,30.10,NE,35,0.0,0.0,97,0.00,,,0.00,Wunderground v.1.15,2013-10-03 10:40:00,
2013-10-03 06:45:00,52.2,51.4,30.11,NE,35,0.0,0.0,97,0.00,,,0.00,Wunderground v.1.15,2013-10-03 10:45:00,
2013-10-03 06:55:00,52.1,51.3,30.11,NE,35,0.0,0.0,97,0.00,,,0.00,Wunderground v.1.15,2013-10-03 10:55:00,
2013-10-03 07:00:00,51.9,51.1,30.11,NE,35,0.0,0.0,97,0.00,,,0.00,Wunderground v.1.15,2013-10-03 11:00:00,
2013-10-03 07:10:00,51.8,51.0,30.11,NE,35,0.0,0.0,97,0.00,,,0.00,Wunderground v.1.15,2013-10-03 11:10:00,
2013-10-03 07:15:00,51.9,51.1,30.11,NE,35,0.0,0.0,97,0.00,,,0.00,Wunderground v.1.15,2013-10-03 11:15:00,
2013-10-03 07:25:00,52.0,51.5,30.11,NE,35,0.0,0.0,98,0.00,,,0.00,Wunderground v.1.15,2013-10-03 11:25:00,
2013-10-03 07:30:00,52.0,51.5,30.12,NE,35,0.0,0.0,98,0.00,,,0.00,Wunderground v.1.15,2013-10-03 11:30:00,
2013-10-03 07:40:00,52.2,51.7,30.12,NE,35,0.0,0.0,98,0.00,,,0.00,Wunderground v.1.15,2013-10-03 11:40:00,
2013-10-03 07:45:00,52.2,51.7,30.12,NE,35,0.0,0.0,98,0.00,,,0.00,Wunderground v.1.15,2013-10-03 11:45:00,
2013-10-03 07:55:00,52.5,52.0,30.12,NE,35,0.0,0.0,98,0.00,,,0.00,Wunderground v.1.15,2013-10-03 11:55:00,
2013-10-03 08:00:00,52.7,52.2,30.12,NE,35,0.0,0.0,98,0.00,,,0.00,Wunderground v.1.15,2013-10-03 12:00:00,
2013-10-03 08:10:00,53.0,52.5,30.12,NE,35,0.0,0.0,98,0.00,,,0.00,Wunderground v.1.15,2013-10-03 12:10:00,
2013-10-03 08:15:00,53.3,52.8,30.12,NE,35,0.0,0.0,98,0.00,,,0.00,Wunderground v.1.15,2013-10-03 12:15:00,
2013-10-03 08:25:00,53.9,53.3,30.13,NE,35,0.0,0.0,98,0.00,,,0.00,Wunderground v.1.15,2013-10-03 12:25:00,
2013-10-03 08:30:00,54.1,53.5,30.13,NE,35,0.0,0.0,98,0.00,,,0.00,Wunderground v.1.15,2013-10-03 12:30:00,
2013-10-03 08:40:00,54.6,54.0,30.13,NE,35,0.0,0.0,98,0.00,,,0.00,Wunderground v.1.15,2013-10-03 12:40:00,
2013-10-03 08:45:00,55.0,54.7,30.14,NE,35,0.0,0.0,99,0.00,,,0.00,Wunderground v.1.15,2013-10-03 12:45:00,
2013-10-03 08:55:00,55.6,55.3,30.14,NE,35,0.0,0.0,99,0.00,,,0.00,Wunderground v.1.15,2013-10-03 12:55:00,
2013-10-03 09:00:00,55.8,55.5,30.14,NE,35,0.0,0.0,99,0.00,,,0.00,Wunderground v.1.15,2013-10-03 13:00:00,
2013-10-03 09:10:00,56.6,56.3,30.14,NE,35,0.0,0.0,99,0.00,,,0.00,Wunderground v.1.15,2013-10-03 13:10:00,
2013-10-03 09:15:00,57.2,56.9,30.14,NE,35,0.0,0.0,99,0.00,,,0.00,Wunderground v.1.15,2013-10-03 13:15:00,
2013-10-03 09:25:00,57.4,57.1,30.14,NE,35,0.0,0.0,99,0.00,,,0.00,Wunderground v.1.15,2013-10-03 13:25:00,
2013-10-03 09:30:00,57.7,57.4,30.14,NE,35,0.0,0.0,99,0.00,,,0.00,Wunderground v.1.15,2013-10-03 13:30:00,
2013-10-03 09:40:00,58.4,58.1,30.14,NE,35,0.0,0.0,99,0.00,,,0.00,Wunderground v.1.15,2013-10-03 13:40:00,
2013-10-03 09:45:00,59.0,58.7,30.14,NE,35,0.0,0.0,99,0.00,,,0.00,Wunderground v.1.15,2013-10-03 13:45:00,
2013-10-03 09:55:00,60.0,59.1,30.14,NE,35,0.0,2.0,97,0.00,,,0.00,Wunderground v.1.15,2013-10-03 13:55:00,
2013-10-03 10:00:00,60.6,59.5,30.14,NE,35,0.0,1.0,96,0.00,,,0.00,Wunderground v.1.15,2013-10-03 14:00:00,
2013-10-03 10:10:00,61.5,59.8,30.14,ENE,65,0.0,1.0,94,0.00,,,0.00,Wunderground v.1.15,2013-10-03 14:10:00,
2013-10-03 10:15:00,62.0,59.6,30.13,ENE,65,0.0,1.0,92,0.00,,,0.00,Wunderground v.1.15,2013-10-03 14:15:00,
2013-10-03 10:25:00,63.0,60.0,30.13,ENE,65,0.0,0.0,90,0.00,,,0.00,Wunderground v.1.15,2013-10-03 14:25:00,
2013-10-03 10:30:00,63.6,60.3,30.13,ENE,65,0.0,0.0,89,0.00,,,0.00,Wunderground v.1.15,2013-10-03 14:30:00,
2013-10-03 10:40:00,64.7,59.8,30.13,ENE,65,0.0,2.0,84,0.00,,,0.00,Wunderground v.1.15,2013-10-03 14:40:00,
2013-10-03 10:45:00,65.3,59.3,30.13,East,79,1.0,2.0,81,0.00,,,0.00,Wunderground v.1.15,2013-10-03 14:45:00,
2013-10-03 10:55:00,67.0,59.9,30.13,ENE,63,0.0,1.0,78,0.00,,,0.00,Wunderground v.1.15,2013-10-03 14:55:00,
2013-10-03 11:00:00,67.6,59.8,30.13,East,101,1.0,2.0,76,0.00,,,0.00,Wunderground v.1.15,2013-10-03 15:00:00,
2013-10-03 11:10:00,68.5,59.9,30.13,East,101,1.0,1.0,74,0.00,,,0.00,Wunderground v.1.15,2013-10-03 15:10:00,
2013-10-03 11:15:00,69.4,60.4,30.12,East,101,1.0,1.0,73,0.00,,,0.00,Wunderground v.1.15,2013-10-03 15:15:00,
2013-10-03 11:25:00,70.5,59.8,30.12,East,101,1.0,2.0,69,0.00,,,0.00,Wunderground v.1.15,2013-10-03 15:25:00,
2013-10-03 11:30:00,71.2,60.5,30.12,East,101,0.0,0.0,69,0.00,,,0.00,Wunderground v.1.15,2013-10-03 15:30:00,
2013-10-03 11:40:00,72.1,59.7,30.11,ESE,109,1.0,1.0,65,0.00,,,0.00,Wunderground v.1.15,2013-10-03 15:40:00,
2013-10-03 11:45:00,72.2,59.8,30.11,ESE,109,1.0,1.0,65,0.00,,,0.00,Wunderground v.1.15,2013-10-03 15:45:00,
2013-10-03 11:55:00,72.6,59.7,30.11,East,100,1.0,2.0,64,0.00,,,0.00,Wunderground v.1.15,2013-10-03 15:55:00,
2013-10-03 12:00:00,72.5,59.6,30.11,East,100,1.0,1.0,64,0.00,,,0.00,Wunderground v.1.15,2013-10-03 16:00:00,
2013-10-03 12:10:00,72.8,60.3,30.11,ENE,59,0.0,0.0,65,0.00,,,0.00,Wunderground v.1.15,2013-10-03 16:10:00,
2013-10-03 12:15:00,72.8,59.5,30.11,ENE,59,1.0,1.0,63,0.00,,,0.00,Wunderground v.1.15,2013-10-03 16:15:00,
2013-10-03 12:25:00,73.7,59.4,30.11,ENE,59,0.0,1.0,61,0.00,,,0.00,Wunderground v.1.15,2013-10-03 16:25:00,
2013-10-03 12:30:00,74.3,59.0,30.11,ENE,59,0.0,0.0,59,0.00,,,0.00,Wunderground v.1.15,2013-10-03 16:30:00,
2013-10-03 12:40:00,75.0,56.7,30.10,ENE,59,0.0,0.0,53,0.00,,,0.00,Wunderground v.1.15,2013-10-03 16:40:00,
2013-10-03 12:45:00,75.5,58.2,30.10,ENE,59,0.0,0.0,55,0.00,,,0.00,Wunderground v.1.15,2013-10-03 16:45:00,
2013-10-03 12:55:00,76.0,58.2,30.09,ENE,59,0.0,0.0,54,0.00,,,0.00,Wunderground v.1.15,2013-10-03 16:55:00,
2013-10-03 13:00:00,76.0,57.6,30.09,ENE,59,0.0,0.0,53,0.00,,,0.00,Wunderground v.1.15,2013-10-03 17:00:00,
2013-10-03 13:10:00,76.5,58.6,30.09,ENE,59,0.0,0.0,54,0.00,,,0.00,Wunderground v.1.15,2013-10-03 17:10:00,
2013-10-03 13:15:00,77.3,58.3,30.09,ENE,59,0.0,0.0,52,0.00,,,0.00,Wunderground v.1.15,2013-10-03 17:15:00,
2013-10-03 13:25:00,78.4,58.2,30.08,ENE,59,0.0,1.0,50,0.00,,,0.00,Wunderground v.1.15,2013-10-03 17:25:00,
2013-10-03 13:30:00,78.8,58.6,30.08,ENE,59,0.0,2.0,50,0.00,,,0.00,Wunderground v.1.15,2013-10-03 17:30:00,
2013-10-03 13:40:00,78.9,54.5,30.07,ENE,59,0.0,0.0,43,0.00,,,0.00,Wunderground v.1.15,2013-10-03 17:40:00,
2013-10-03 13:45:00,79.0,55.2,30.07,ENE,57,0.0,0.0,44,0.00,,,0.00,Wunderground v.1.15,2013-10-03 17:45:00,
2013-10-03 13:55:00,78.5,56.0,30.07,SSE,152,0.0,0.0,46,0.00,,,0.00,Wunderground v.1.15,2013-10-03 17:55:00,
2013-10-03 14:00:00,78.7,57.9,30.07,SE,145,0.0,0.0,49,0.00,,,0.00,Wunderground v.1.15,2013-10-03 18:00:00,
2013-10-03 14:10:00,78.7,57.4,30.07,SE,145,0.0,0.0,48,0.00,,,0.00,Wunderground v.1.15,2013-10-03 18:10:00,
2013-10-03 14:15:00,78.9,57.0,30.07,SE,145,0.0,1.0,47,0.00,,,0.00,Wunderground v.1.15,2013-10-03 18:15:00,
2013-10-03 14:25:00,78.2,56.9,30.06,SSW,205,1.0,2.0,48,0.00,,,0.00,Wunderground v.1.15,2013-10-03 18:25:00,
2013-10-03 14:30:00,78.0,56.1,30.06,NE,44,0.0,0.0,47,0.00,,,0.00,Wunderground v.1.15,2013-10-03 18:30:00,
2013-10-03 14:40:00,77.8,55.4,30.06,NE,51,1.0,2.0,46,0.00,,,0.00,Wunderground v.1.15,2013-10-03 18:40:00,
2013-10-03 14:45:00,77.8,56.5,30.06,NW,306,1.0,2.0,48,0.00,,,0.00,Wunderground v.1.15,2013-10-03 18:45:00,
2013-10-03 14:55:00,78.0,57.9,30.05,NNW,342,0.0,1.0,50,0.00,,,0.00,Wunderground v.1.15,2013-10-03 18:55:00,
2013-10-03 15:00:00,78.0,58.4,30.06,WSW,243,0.0,1.0,51,0.00,,,0.00,Wunderground v.1.15,2013-10-03 19:00:00,
2013-10-03 15:10:00,77.9,58.9,30.05,WSW,240,1.0,1.0,52,0.00,,,0.00,Wunderground v.1.15,2013-10-03 19:10:00,
2013-10-03 15:15:00,77.8,59.3,30.05,NE,45,1.0,1.0,53,0.00,,,0.00,Wunderground v.1.15,2013-10-03 19:15:00,
2013-10-03 15:25:00,77.6,59.1,30.05,SSE,165,0.0,1.0,53,0.00,,,0.00,Wunderground v.1.15,2013-10-03 19:25:00,
2013-10-03 15:30:00,77.5,59.5,30.05,SSW,196,1.0,1.0,54,0.00,,,0.00,Wunderground v.1.15,2013-10-03 19:30:00,
2013-10-03 15:40:00,77.4,60.5,30.04,SSW,211,0.0,0.0,56,0.00,,,0.00,Wunderground v.1.15,2013-10-03 19:40:00,
2013-10-03 15:45:00,77.3,60.9,30.04,SSW,211,0.0,0.0,57,0.00,,,0.00,Wunderground v.1.15,2013-10-03 19:45:00,
2013-10-03 15:55:00,77.1,61.2,30.04,SW,234,0.0,0.0,58,0.00,,,0.00,Wunderground v.1.15,2013-10-03 19:55:00,
2013-10-03 16:00:00,77.1,61.2,30.04,SW,234,0.0,0.0,58,0.00,,,0.00,Wunderground v.1.15,2013-10-03 20:00:00,
2013-10-03 16:10:00,77.4,61.5,30.04,WSW,254,0.0,0.0,58,0.00,,,0.00,Wunderground v.1.15,2013-10-03 20:10:00,
2013-10-03 16:15:00,77.3,61.9,30.03,South,190,0.0,0.0,59,0.00,,,0.00,Wunderground v.1.15,2013-10-03 20:15:00,
2013-10-03 16:25:00,77.2,62.2,30.03,South,190,0.0,0.0,60,0.00,,,0.00,Wunderground v.1.15,2013-10-03 20:25:00,
2013-10-03 16:30:00,77.3,62.8,30.03,South,190,0.0,0.0,61,0.00,,,0.00,Wunderground v.1.15,2013-10-03 20:30:00,
2013-10-03 16:40:00,77.2,63.2,30.03,East,83,0.0,0.0,62,0.00,,,0.00,Wunderground v.1.15,2013-10-03 20:40:00,
2013-10-03 16:45:00,77.0,63.0,30.03,East,83,0.0,0.0,62,0.00,,,0.00,Wunderground v.1.15,2013-10-03 20:45:00,
2013-10-03 16:55:00,76.8,63.2,30.03,East,83,0.0,0.0,63,0.00,,,0.00,Wunderground v.1.15,2013-10-03 20:55:00,
2013-10-03 17:00:00,76.7,63.6,30.03,East,83,0.0,0.0,64,0.00,,,0.00,Wunderground v.1.15,2013-10-03 21:00:00,
2013-10-03 17:10:00,76.4,63.8,30.03,East,83,0.0,0.0,65,0.00,,,0.00,Wunderground v.1.15,2013-10-03 21:10:00,
2013-10-03 17:15:00,76.2,63.6,30.04,East,83,0.0,0.0,65,0.00,,,0.00,Wunderground v.1.15,2013-10-03 21:15:00,
2013-10-03 17:25:00,76.0,63.8,30.04,East,83,0.0,0.0,66,0.00,,,0.00,Wunderground v.1.15,2013-10-03 21:25:00,
2013-10-03 17:30:00,75.7,64.0,30.04,East,83,0.0,0.0,67,0.00,,,0.00,Wunderground v.1.15,2013-10-03 21:30:00,
2013-10-03 17:40:00,75.3,64.4,30.04,East,83,0.0,0.0,69,0.00,,,0.00,Wunderground v.1.15,2013-10-03 21:40:00,
2013-10-03 17:45:00,75.1,64.6,30.03,East,83,0.0,0.0,70,0.00,,,0.00,Wunderground v.1.15,2013-10-03 21:45:00,
2013-10-03 17:55:00,74.7,64.3,30.03,East,83,0.0,0.0,70,0.00,,,0.00,Wunderground v.1.15,2013-10-03 21:55:00,
2013-10-03 18:00:00,74.5,64.1,30.03,East,83,0.0,0.0,70,0.00,,,0.00,Wunderground v.1.15,2013-10-03 22:00:00,
2013-10-03 18:10:00,74.1,63.7,30.03,East,83,0.0,0.0,70,0.00,,,0.00,Wunderground v.1.15,2013-10-03 22:10:00,
2013-10-03 18:15:00,73.8,63.4,30.03,East,83,0.0,0.0,70,0.00,,,0.00,Wunderground v.1.15,2013-10-03 22:15:00,
2013-10-03 18:25:00,73.0,63.8,30.03,East,83,0.0,0.0,73,0.00,,,0.00,Wunderground v.1.15,2013-10-03 22:25:00,
2013-10-03 18:30:00,72.5,63.7,30.03,East,83,0.0,0.0,74,0.00,,,0.00,Wunderground v.1.15,2013-10-03 22:30:00,
2013-10-03 18:40:00,72.1,64.1,30.04,East,83,0.0,0.0,76,0.00,,,0.00,Wunderground v.1.15,2013-10-03 22:40:00,
2013-10-03 18:45:00,71.8,64.2,30.04,East,83,0.0,0.0,77,0.00,,,0.00,Wunderground v.1.15,2013-10-03 22:45:00,
2013-10-03 18:55:00,71.0,64.2,30.04,East,83,0.0,0.0,79,0.00,,,0.00,Wunderground v.1.15,2013-10-03 22:55:00,
2013-10-03 19:00:00,70.5,64.0,30.04,East,83,0.0,0.0,80,0.00,,,0.00,Wunderground v.1.15,2013-10-03 23:00:00,
2013-10-03 19:10:00,69.8,64.1,30.04,East,83,0.0,0.0,82,0.00,,,0.00,Wunderground v.1.15,2013-10-03 23:10:00,
2013-10-03 19:15:00,69.5,63.8,30.04,East,83,0.0,0.0,82,0.00,,,0.00,Wunderground v.1.15,2013-10-03 23:15:00,
2013-10-03 19:25:00,69.1,64.1,30.04,East,83,0.0,0.0,84,0.00,,,0.00,Wunderground v.1.15,2013-10-03 23:25:00,
2013-10-03 19:30:00,68.7,63.7,30.04,East,83,0.0,0.0,84,0.00,,,0.00,Wunderground v.1.15,2013-10-03 23:30:00,
2013-10-03 19:40:00,68.3,63.6,30.05,East,83,0.0,0.0,85,0.00,,,0.00,Wunderground v.1.15,2013-10-03 23:40:00,
2013-10-03 19:45:00,68.0,63.7,30.05,East,83,0.0,0.0,86,0.00,,,0.00,Wunderground v.1.15,2013-10-03 23:45:00,
2013-10-03 19:55:00,67.5,63.2,30.05,East,83,0.0,0.0,86,0.00,,,0.00,Wunderground v.1.15,2013-10-03 23:55:00,
2013-10-03 20:00:00,67.4,63.4,30.05,East,83,0.0,0.0,87,0.00,,,0.00,Wunderground v.1.15,2013-10-04 00:00:00,
2013-10-03 20:10:00,67.1,63.1,30.05,East,83,0.0,0.0,87,0.00,,,0.00,Wunderground v.1.15,2013-10-04 00:10:00,
2013-10-03 20:15:00,66.9,62.9,30.05,East,83,0.0,0.0,87,0.00,,,0.00,Wunderground v.1.15,2013-10-04 00:15:00,
2013-10-03 20:25:00,66.6,62.9,30.05,East,83,0.0,0.0,88,0.00,,,0.00,Wunderground v.1.15,2013-10-04 00:25:00,
2013-10-03 20:30:00,66.5,62.8,30.05,East,83,0.0,0.0,88,0.00,,,0.00,Wunderground v.1.15,2013-10-04 00:30:00,
2013-10-03 20:40:00,66.2,62.5,30.05,East,83,0.0,0.0,88,0.00,,,0.00,Wunderground v.1.15,2013-10-04 00:40:00,
2013-10-03 20:45:00,66.1,62.8,30.05,East,83,0.0,0.0,89,0.00,,,0.00,Wunderground v.1.15,2013-10-04 00:45:00,
2013-10-03 20:55:00,65.6,62.6,30.05,East,83,0.0,0.0,90,0.00,,,0.00,Wunderground v.1.15,2013-10-04 00:55:00,
2013-10-03 21:00:00,65.3,62.3,30.05,East,83,0.0,0.0,90,0.00,,,0.00,Wunderground v.1.15,2013-10-04 01:00:00,
2013-10-03 21:10:00,65.0,62.0,30.05,East,83,0.0,0.0,90,0.00,,,0.00,Wunderground v.1.15,2013-10-04 01:10:00,
2013-10-03 21:15:00,64.9,62.2,30.05,East,83,0.0,0.0,91,0.00,,,0.00,Wunderground v.1.15,2013-10-04 01:15:00,
2013-10-03 21:25:00,64.7,62.0,30.05,East,83,0.0,0.0,91,0.00,,,0.00,Wunderground v.1.15,2013-10-04 01:25:00,
2013-10-03 21:30:00,64.6,61.9,30.05,East,83,0.0,0.0,91,0.00,,,0.00,Wunderground v.1.15,2013-10-04 01:30:00,
2013-10-03 21:40:00,64.4,62.0,30.06,East,83,0.0,0.0,92,0.00,,,0.00,Wunderground v.1.15,2013-10-04 01:40:00,
2013-10-03 21:45:00,64.2,61.8,30.06,East,83,0.0,0.0,92,0.00,,,0.00,Wunderground v.1.15,2013-10-04 01:45:00,
2013-10-03 21:55:00,63.9,61.5,30.06,East,83,0.0,0.0,92,0.00,,,0.00,Wunderground v.1.15,2013-10-04 01:55:00,
2013-10-03 22:00:00,63.7,61.3,30.06,East,83,0.0,0.0,92,0.00,,,0.00,Wunderground v.1.15,2013-10-04 02:00:00,
2013-10-03 22:10:00,63.5,61.4,30.06,East,83,0.0,0.0,93,0.00,,,0.00,Wunderground v.1.15,2013-10-04 02:10:00,
2013-10-03 22:15:00,63.4,61.3,30.07,East,83,0.0,0.0,93,0.00,,,0.00,Wunderground v.1.15,2013-10-04 02:15:00,
2013-10-03 22:25:00,63.2,61.1,30.07,East,83,0.0,0.0,93,0.00,,,0.00,Wunderground v.1.15,2013-10-04 02:25:00,
2013-10-03 22:30:00,63.2,61.1,30.07,East,83,0.0,0.0,93,0.00,,,0.00,Wunderground v.1.15,2013-10-04 02:30:00,
2013-10-03 22:40:00,63.0,61.2,30.08,East,83,0.0,0.0,94,0.00,,,0.00,Wunderground v.1.15,2013-10-04 02:40:00,
2013-10-03 22:45:00,62.9,61.1,30.08,East,83,0.0,0.0,94,0.00,,,0.00,Wunderground v.1.15,2013-10-04 02:45:00,
2013-10-03 22:55:00,62.8,61.0,30.08,East,83,0.0,0.0,94,0.00,,,0.00,Wunderground v.1.15,2013-10-04 02:55:00,
2013-10-03 23:00:00,62.6,60.8,30.08,East,83,0.0,0.0,94,0.00,,,0.00,Wunderground v.1.15,2013-10-04 03:00:00,
2013-10-03 23:10:00,62.2,60.5,30.07,East,83,0.0,0.0,94,0.00,,,0.00,Wunderground v.1.15,2013-10-04 03:10:00,
2013-10-03 23:15:00,62.0,60.3,30.07,East,83,0.0,0.0,94,0.00,,,0.00,Wunderground v.1.15,2013-10-04 03:15:00,
2013-10-03 23:25:00,61.7,60.0,30.07,East,83,0.0,0.0,94,0.00,,,0.00,Wunderground v.1.15,2013-10-04 03:25:00,
2013-10-03 23:30:00,61.6,60.2,30.06,East,83,0.0,0.0,95,0.00,,,0.00,Wunderground v.1.15,2013-10-04 03:30:00,
2013-10-03 23:40:00,61.5,60.1,30.06,East,83,0.0,0.0,95,0.00,,,0.00,Wunderground v.1.15,2013-10-04 03:40:00,
2013-10-03 23:45:00,61.5,60.1,30.06,East,83,0.0,0.0,95,0.00,,,0.00,Wunderground v.1.15,2013-10-04 03:45:00,
2013-10-03 23:55:00,61.5,60.1,30.06,East,83,0.0,0.0,95,0.00,,,0.00,Wunderground v.1.15,2013-10-04 03:55:00,